Year,Month,Day,Hour,Minute,Value (Times are PST for temperature in C)
2014,04,25,00,00,3.70
2014,04,25,00,01,3.70
2014,04,25,00,02,3.70
2014,04,25,00,03,3.70
2014,04,25,00,04,3.70
2014,04,25,00,05,3.70
2014,04,25,00,06,3.60
2014,04,25,00,07,3.60
2014,04,25,00,08,3.60
2014,04,25,00,09,3.60
2014,04,25,00,10,3.60
2014,04,25,00,11,3.60
2014,04,25,00,12,3.60
2014,04,25,00,13,3.50
2014,04,25,00,14,3.50
2014,04,25,00,15,3.50
2014,04,25,00,16,3.40
2014,04,25,00,17,3.40
2014,04,25,00,18,3.40
2014,04,25,00,19,3.40
2014,04,25,00,20,3.40
2014,04,25,00,21,3.40
2014,04,25,00,22,3.30
2014,04,25,00,23,3.30
2014,04,25,00,24,3.30
2014,04,25,00,25,3.30
2014,04,25,00,26,3.30
2014,04,25,00,27,3.30
2014,04,25,00,28,3.30
2014,04,25,00,29,3.30
2014,04,25,00,30,3.30
2014,04,25,00,31,3.30
2014,04,25,00,32,3.30
2014,04,25,00,33,3.30
2014,04,25,00,34,3.30
2014,04,25,00,35,3.30
2014,04,25,00,36,3.30
2014,04,25,00,37,3.20
2014,04,25,00,38,3.20
2014,04,25,00,39,3.20
2014,04,25,00,40,3.20
2014,04,25,00,41,3.20
2014,04,25,00,42,3.20
2014,04,25,00,43,3.20
2014,04,25,00,44,3.20
2014,04,25,00,45,3.20
2014,04,25,00,46,3.20
2014,04,25,00,47,3.20
2014,04,25,00,48,3.10
2014,04,25,00,49,3.10
2014,04,25,00,50,3.10
2014,04,25,00,51,3.10
2014,04,25,00,52,3.10
2014,04,25,00,53,3.10
2014,04,25,00,54,3.10
2014,04,25,00,55,3.00
2014,04,25,00,56,3.00
2014,04,25,00,57,3.00
2014,04,25,00,58,3.00
2014,04,25,00,59,2.90
2014,04,25,01,00,2.90
2014,04,25,01,01,2.90
2014,04,25,01,02,2.90
2014,04,25,01,03,2.90
2014,04,25,01,04,2.80
2014,04,25,01,05,2.80
2014,04,25,01,06,2.80
2014,04,25,01,07,2.80
2014,04,25,01,08,2.80
2014,04,25,01,09,2.80
2014,04,25,01,10,2.80
2014,04,25,01,11,2.80
2014,04,25,01,12,2.70
2014,04,25,01,13,2.70
2014,04,25,01,14,2.70
2014,04,25,01,15,2.70
2014,04,25,01,16,2.70
2014,04,25,01,17,2.70
2014,04,25,01,18,2.70
2014,04,25,01,19,2.70
2014,04,25,01,20,2.70
2014,04,25,01,21,2.70
2014,04,25,01,22,2.70
2014,04,25,01,23,2.70
2014,04,25,01,24,2.70
2014,04,25,01,25,2.70
2014,04,25,01,26,2.70
2014,04,25,01,27,2.70
2014,04,25,01,28,2.70
2014,04,25,01,29,2.60
2014,04,25,01,30,2.60
2014,04,25,01,31,2.60
2014,04,25,01,32,2.60
2014,04,25,01,33,2.60
2014,04,25,01,34,2.50
2014,04,25,01,35,2.50
2014,04,25,01,36,2.50
2014,04,25,01,37,2.50
2014,04,25,01,38,2.50
2014,04,25,01,39,2.50
2014,04,25,01,40,2.50
2014,04,25,01,41,2.40
2014,04,25,01,42,2.40
2014,04,25,01,43,2.40
2014,04,25,01,44,2.40
2014,04,25,01,45,2.40
2014,04,25,01,46,2.40
2014,04,25,01,47,2.40
2014,04,25,01,48,2.40
2014,04,25,01,49,2.40
2014,04,25,01,50,2.40
2014,04,25,01,51,2.40
2014,04,25,01,52,2.40
2014,04,25,01,53,2.50
2014,04,25,01,54,2.50
2014,04,25,01,55,2.50
2014,04,25,01,56,2.50
2014,04,25,01,57,2.50
2014,04,25,01,58,2.50
2014,04,25,01,59,2.60
2014,04,25,02,00,2.60
2014,04,25,02,01,2.60
2014,04,25,02,02,2.60
2014,04,25,02,03,2.60
2014,04,25,02,04,2.60
2014,04,25,02,05,2.70
2014,04,25,02,06,2.70
2014,04,25,02,07,2.70
2014,04,25,02,08,2.70
2014,04,25,02,09,2.70
2014,04,25,02,10,2.70
2014,04,25,02,11,2.80
2014,04,25,02,12,2.80
2014,04,25,02,13,2.80
2014,04,25,02,14,2.80
2014,04,25,02,15,2.80
2014,04,25,02,16,2.80
2014,04,25,02,17,2.80
2014,04,25,02,18,2.80
2014,04,25,02,19,2.80
2014,04,25,02,20,2.80
2014,04,25,02,21,2.80
2014,04,25,02,22,2.80
2014,04,25,02,23,2.80
2014,04,25,02,24,2.80
2014,04,25,02,25,2.90
2014,04,25,02,26,2.90
2014,04,25,02,27,2.90
2014,04,25,02,28,2.90
2014,04,25,02,29,2.90
2014,04,25,02,30,2.90
2014,04,25,02,31,2.90
2014,04,25,02,32,2.90
2014,04,25,02,33,2.90
2014,04,25,02,34,2.90
2014,04,25,02,35,2.80
2014,04,25,02,36,2.90
2014,04,25,02,37,2.80
2014,04,25,02,38,2.80
2014,04,25,02,39,2.80
2014,04,25,02,40,2.80
2014,04,25,02,41,2.80
2014,04,25,02,42,2.80
2014,04,25,02,43,2.80
2014,04,25,02,44,2.80
2014,04,25,02,45,2.70
2014,04,25,02,46,2.70
2014,04,25,02,47,2.70
2014,04,25,02,48,2.70
2014,04,25,02,49,2.70
2014,04,25,02,50,2.70
2014,04,25,02,51,2.70
2014,04,25,02,52,2.70
2014,04,25,02,53,2.60
2014,04,25,02,54,2.60
2014,04,25,02,55,2.60
2014,04,25,02,56,2.60
2014,04,25,02,57,2.60
2014,04,25,02,58,2.60
2014,04,25,02,59,2.60
2014,04,25,03,00,2.60
2014,04,25,03,01,2.60
2014,04,25,03,02,2.50
2014,04,25,03,03,2.50
2014,04,25,03,06,2.50
2014,04,25,03,07,2.50
2014,04,25,03,08,2.50
2014,04,25,03,09,2.50
2014,04,25,03,10,2.50
2014,04,25,03,11,2.50
2014,04,25,03,12,2.50
2014,04,25,03,13,2.40
2014,04,25,03,14,2.40
2014,04,25,03,15,2.40
2014,04,25,03,16,2.40
2014,04,25,03,17,2.40
2014,04,25,03,18,2.40
2014,04,25,03,19,2.40
2014,04,25,03,20,2.40
2014,04,25,03,21,2.40
2014,04,25,03,22,2.40
2014,04,25,03,23,2.40
2014,04,25,03,24,2.40
2014,04,25,03,25,2.40
2014,04,25,03,26,2.40
2014,04,25,03,27,2.40
2014,04,25,03,28,2.40
2014,04,25,03,29,2.40
2014,04,25,03,30,2.40
2014,04,25,03,31,2.40
2014,04,25,03,32,2.40
2014,04,25,03,33,2.40
2014,04,25,03,34,2.40
2014,04,25,03,35,2.30
2014,04,25,03,36,2.30
2014,04,25,03,37,2.30
2014,04,25,03,38,2.30
2014,04,25,03,39,2.30
2014,04,25,03,40,2.30
2014,04,25,03,41,2.30
2014,04,25,03,42,2.30
2014,04,25,03,43,2.20
2014,04,25,03,44,2.20
2014,04,25,03,45,2.20
2014,04,25,03,46,2.20
2014,04,25,03,47,2.20
2014,04,25,03,48,2.20
2014,04,25,03,49,2.20
2014,04,25,03,50,2.20
2014,04,25,03,51,2.20
2014,04,25,03,52,2.20
2014,04,25,03,53,2.10
2014,04,25,03,54,2.10
2014,04,25,03,55,2.10
2014,04,25,03,56,2.10
2014,04,25,03,57,2.10
2014,04,25,03,58,2.10
2014,04,25,03,59,2.10
2014,04,25,04,00,2.10
2014,04,25,04,01,2.10
2014,04,25,04,02,2.10
2014,04,25,04,03,2.10
2014,04,25,04,04,2.10
2014,04,25,04,05,2.10
2014,04,25,04,06,2.10
2014,04,25,04,07,2.10
2014,04,25,04,08,2.10
2014,04,25,04,09,2.10
2014,04,25,04,10,2.10
2014,04,25,04,11,2.10
2014,04,25,04,12,2.10
2014,04,25,04,13,2.10
2014,04,25,04,14,2.20
2014,04,25,04,15,2.10
2014,04,25,04,16,2.20
2014,04,25,04,17,2.20
2014,04,25,04,18,2.20
2014,04,25,04,19,2.20
2014,04,25,04,20,2.20
2014,04,25,04,21,2.20
2014,04,25,04,22,2.20
2014,04,25,04,23,2.20
2014,04,25,04,24,2.20
2014,04,25,04,25,2.20
2014,04,25,04,26,2.20
2014,04,25,04,27,2.20
2014,04,25,04,28,2.20
2014,04,25,04,29,2.20
2014,04,25,04,30,2.20
2014,04,25,04,31,2.20
2014,04,25,04,32,2.20
2014,04,25,04,33,2.20
2014,04,25,04,34,2.10
2014,04,25,04,35,2.10
2014,04,25,04,36,2.10
2014,04,25,04,37,2.10
2014,04,25,04,38,2.10
2014,04,25,04,39,2.10
2014,04,25,04,40,2.10
2014,04,25,04,41,2.10
2014,04,25,04,42,2.10
2014,04,25,04,43,2.10
2014,04,25,04,44,2.10
2014,04,25,04,45,2.10
2014,04,25,04,46,2.20
2014,04,25,04,47,2.10
2014,04,25,04,48,2.10
2014,04,25,04,49,2.10
2014,04,25,04,50,2.10
2014,04,25,04,51,2.10
2014,04,25,04,52,2.10
2014,04,25,04,53,2.10
2014,04,25,04,54,2.10
2014,04,25,04,55,2.10
2014,04,25,04,56,2.10
2014,04,25,04,57,2.10
2014,04,25,04,58,2.10
2014,04,25,04,59,2.10
2014,04,25,05,00,2.10
2014,04,25,05,01,2.10
2014,04,25,05,02,2.10
2014,04,25,05,03,2.10
2014,04,25,05,04,2.10
2014,04,25,05,05,2.10
2014,04,25,05,06,2.00
2014,04,25,05,07,2.00
2014,04,25,05,08,2.00
2014,04,25,05,09,2.00
2014,04,25,05,10,2.00
2014,04,25,05,11,2.00
2014,04,25,05,12,2.00
2014,04,25,05,13,2.00
2014,04,25,05,14,2.00
2014,04,25,05,15,2.00
2014,04,25,05,16,2.00
2014,04,25,05,17,2.00
2014,04,25,05,18,2.00
2014,04,25,05,19,2.00
2014,04,25,05,20,2.00
2014,04,25,05,21,2.00
2014,04,25,05,22,2.00
2014,04,25,05,23,2.00
2014,04,25,05,24,2.00
2014,04,25,05,25,2.00
2014,04,25,05,26,2.00
2014,04,25,05,27,2.00
2014,04,25,05,28,2.00
2014,04,25,05,29,2.00
2014,04,25,05,30,2.00
2014,04,25,05,31,2.00
2014,04,25,05,32,2.00
2014,04,25,05,33,2.00
2014,04,25,05,34,2.00
2014,04,25,05,35,2.00
2014,04,25,05,36,2.00
2014,04,25,05,37,2.00
2014,04,25,05,38,2.00
2014,04,25,05,39,2.00
2014,04,25,05,40,2.00
2014,04,25,05,41,2.00
2014,04,25,05,42,2.00
2014,04,25,05,43,2.00
2014,04,25,05,44,2.10
2014,04,25,05,45,2.10
2014,04,25,05,46,2.10
2014,04,25,05,47,2.10
2014,04,25,05,48,2.10
2014,04,25,05,49,2.10
2014,04,25,05,50,2.20
2014,04,25,05,51,2.20
2014,04,25,05,52,2.20
2014,04,25,05,53,2.20
2014,04,25,05,54,2.20
2014,04,25,05,55,2.20
2014,04,25,05,56,2.20
2014,04,25,05,57,2.20
2014,04,25,05,58,2.20
2014,04,25,05,59,2.20
2014,04,25,06,00,2.20
2014,04,25,06,01,2.20
2014,04,25,06,02,2.20
2014,04,25,06,03,2.20
2014,04,25,06,04,2.20
2014,04,25,06,05,2.20
2014,04,25,06,06,2.20
2014,04,25,06,07,2.20
2014,04,25,06,08,2.20
2014,04,25,06,09,2.20
2014,04,25,06,10,2.20
2014,04,25,06,11,2.20
2014,04,25,06,12,2.10
2014,04,25,06,13,2.10
2014,04,25,06,14,2.10
2014,04,25,06,15,2.10
2014,04,25,06,16,2.10
2014,04,25,06,17,2.10
2014,04,25,06,18,2.10
2014,04,25,06,19,2.10
2014,04,25,06,20,2.10
2014,04,25,06,21,2.10
2014,04,25,06,22,2.10
2014,04,25,06,23,2.10
2014,04,25,06,24,2.10
2014,04,25,06,25,2.10
2014,04,25,06,26,2.20
2014,04,25,06,27,2.20
2014,04,25,06,28,2.20
2014,04,25,06,29,2.20
2014,04,25,06,30,2.20
2014,04,25,06,31,2.20
2014,04,25,06,32,2.20
2014,04,25,06,33,2.20
2014,04,25,06,34,2.20
2014,04,25,06,35,2.20
2014,04,25,06,36,2.20
2014,04,25,06,37,2.20
2014,04,25,06,38,2.30
2014,04,25,06,39,2.30
2014,04,25,06,40,2.30
2014,04,25,06,41,2.30
2014,04,25,06,42,2.30
2014,04,25,06,43,2.30
2014,04,25,06,44,2.30
2014,04,25,06,45,2.30
2014,04,25,06,46,2.30
2014,04,25,06,47,2.40
2014,04,25,06,48,2.40
2014,04,25,06,49,2.40
2014,04,25,06,50,2.40
2014,04,25,06,51,2.40
2014,04,25,06,52,2.40
2014,04,25,06,53,2.40
2014,04,25,06,54,2.40
2014,04,25,06,55,2.50
2014,04,25,06,56,2.50
2014,04,25,06,57,2.50
2014,04,25,06,58,2.50
2014,04,25,06,59,2.60
2014,04,25,07,00,2.60
2014,04,25,07,01,2.60
2014,04,25,07,02,2.60
2014,04,25,07,03,2.60
2014,04,25,07,04,2.60
2014,04,25,07,05,2.60
2014,04,25,07,06,2.60
2014,04,25,07,07,2.70
2014,04,25,07,08,2.70
2014,04,25,07,09,2.70
2014,04,25,07,10,2.70
2014,04,25,07,11,2.70
2014,04,25,07,12,2.70
2014,04,25,07,13,2.70
2014,04,25,07,14,2.80
2014,04,25,07,15,2.80
2014,04,25,07,16,2.80
2014,04,25,07,17,2.80
2014,04,25,07,18,2.80
2014,04,25,07,19,2.80
2014,04,25,07,20,2.90
2014,04,25,07,21,2.90
2014,04,25,07,22,2.90
2014,04,25,07,23,2.90
2014,04,25,07,24,3.00
2014,04,25,07,25,3.00
2014,04,25,07,26,3.00
2014,04,25,07,27,3.00
2014,04,25,07,28,3.10
2014,04,25,07,29,3.10
2014,04,25,07,30,3.10
2014,04,25,07,31,3.10
2014,04,25,07,32,3.20
2014,04,25,07,33,3.20
2014,04,25,07,34,3.20
2014,04,25,07,35,3.20
2014,04,25,07,36,3.30
2014,04,25,07,37,3.30
2014,04,25,07,38,3.30
2014,04,25,07,39,3.40
2014,04,25,07,40,3.40
2014,04,25,07,41,3.50
2014,04,25,07,42,3.50
2014,04,25,07,43,3.60
2014,04,25,07,44,3.60
2014,04,25,07,45,3.70
2014,04,25,07,46,3.70
2014,04,25,07,47,3.70
2014,04,25,07,48,3.80
2014,04,25,07,49,3.80
2014,04,25,07,50,3.80
2014,04,25,07,51,3.80
2014,04,25,07,52,3.80
2014,04,25,07,53,3.80
2014,04,25,07,54,3.90
2014,04,25,07,55,3.90
2014,04,25,07,56,3.90
2014,04,25,07,57,3.90
2014,04,25,07,58,3.90
2014,04,25,07,59,3.90
2014,04,25,08,00,4.00
2014,04,25,08,01,4.00
2014,04,25,08,02,4.00
2014,04,25,08,03,4.10
2014,04,25,08,04,4.10
2014,04,25,08,05,4.10
2014,04,25,08,06,4.10
2014,04,25,08,07,4.10
2014,04,25,08,08,4.10
2014,04,25,08,09,4.20
2014,04,25,08,10,4.20
2014,04,25,08,11,4.20
2014,04,25,08,12,4.30
2014,04,25,08,13,4.30
2014,04,25,08,14,4.30
2014,04,25,08,15,4.40
2014,04,25,08,16,4.40
2014,04,25,08,17,4.50
2014,04,25,08,18,4.50
2014,04,25,08,19,4.50
2014,04,25,08,20,4.50
2014,04,25,08,21,4.50
2014,04,25,08,22,4.50
2014,04,25,08,23,4.50
2014,04,25,08,24,4.50
2014,04,25,08,25,4.50
2014,04,25,08,26,4.60
2014,04,25,08,27,4.60
2014,04,25,08,28,4.60
2014,04,25,08,29,4.60
2014,04,25,08,30,4.60
2014,04,25,08,31,4.70
2014,04,25,08,32,4.70
2014,04,25,08,33,4.70
2014,04,25,08,34,4.70
2014,04,25,08,35,4.70
2014,04,25,08,36,4.80
2014,04,25,08,37,4.80
2014,04,25,08,38,4.80
2014,04,25,08,39,4.90
2014,04,25,08,40,4.90
2014,04,25,08,41,5.00
2014,04,25,08,42,5.00
2014,04,25,08,43,5.10
2014,04,25,08,44,5.10
2014,04,25,08,45,5.10
2014,04,25,08,46,5.20
2014,04,25,08,47,5.20
2014,04,25,08,48,5.30
2014,04,25,08,49,5.30
2014,04,25,08,50,5.40
2014,04,25,08,51,5.50
2014,04,25,08,52,5.50
2014,04,25,08,53,5.60
2014,04,25,08,54,5.70
2014,04,25,08,55,5.80
2014,04,25,08,56,5.80
2014,04,25,08,57,5.90
2014,04,25,08,58,6.00
2014,04,25,08,59,6.00
2014,04,25,09,00,6.10
2014,04,25,09,01,6.20
2014,04,25,09,02,6.20
2014,04,25,09,03,6.30
2014,04,25,09,04,6.30
2014,04,25,09,05,6.30
2014,04,25,09,06,6.40
2014,04,25,09,07,6.40
2014,04,25,09,08,6.50
2014,04,25,09,09,6.60
2014,04,25,09,10,6.70
2014,04,25,09,11,6.70
2014,04,25,09,12,6.80
2014,04,25,09,13,6.80
2014,04,25,09,14,6.90
2014,04,25,09,15,6.90
2014,04,25,09,16,6.90
2014,04,25,09,17,6.90
2014,04,25,09,18,6.90
2014,04,25,09,19,6.90
2014,04,25,09,20,6.90
2014,04,25,09,21,6.90
2014,04,25,09,22,6.90
2014,04,25,09,23,6.90
2014,04,25,09,24,6.90
2014,04,25,09,25,6.90
2014,04,25,09,26,6.90
2014,04,25,09,27,6.90
2014,04,25,09,28,7.00
2014,04,25,09,29,7.00
2014,04,25,09,30,7.10
2014,04,25,09,31,7.10
2014,04,25,09,32,7.10
2014,04,25,09,33,7.20
2014,04,25,09,34,7.20
2014,04,25,09,35,7.20
2014,04,25,09,36,7.30
2014,04,25,09,37,7.30
2014,04,25,09,38,7.40
2014,04,25,09,39,7.40
2014,04,25,09,40,7.40
2014,04,25,09,41,7.40
2014,04,25,09,42,7.50
2014,04,25,09,43,7.50
2014,04,25,09,44,7.60
2014,04,25,09,45,7.70
2014,04,25,09,46,7.80
2014,04,25,09,47,7.90
2014,04,25,09,48,7.90
2014,04,25,09,49,8.00
2014,04,25,09,50,8.10
2014,04,25,09,51,8.20
2014,04,25,09,52,8.30
2014,04,25,09,53,8.30
2014,04,25,09,54,8.40
2014,04,25,09,55,8.40
2014,04,25,09,56,8.50
2014,04,25,09,57,8.50
2014,04,25,09,58,8.60
2014,04,25,09,59,8.70
2014,04,25,10,00,8.70
2014,04,25,10,01,8.80
2014,04,25,10,02,8.90
2014,04,25,10,03,8.90
2014,04,25,10,04,9.00
2014,04,25,10,05,9.00
2014,04,25,10,06,9.00
2014,04,25,10,07,8.90
2014,04,25,10,08,8.90
2014,04,25,10,09,8.80
2014,04,25,10,10,8.70
2014,04,25,10,11,8.70
2014,04,25,10,12,8.70
2014,04,25,10,13,8.70
2014,04,25,10,14,8.70
2014,04,25,10,15,8.70
2014,04,25,10,16,8.70
2014,04,25,10,17,8.70
2014,04,25,10,18,8.80
2014,04,25,10,19,8.80
2014,04,25,10,20,8.80
2014,04,25,10,21,8.90
2014,04,25,10,22,8.90
2014,04,25,10,23,9.00
2014,04,25,10,24,9.10
2014,04,25,10,25,9.20
2014,04,25,10,26,9.20
2014,04,25,10,27,9.30
2014,04,25,10,28,9.40
2014,04,25,10,29,9.50
2014,04,25,10,30,9.60
2014,04,25,10,31,9.60
2014,04,25,10,32,9.60
2014,04,25,10,33,9.70
2014,04,25,10,34,9.70
2014,04,25,10,35,9.80
2014,04,25,10,36,9.90
2014,04,25,10,37,9.90
2014,04,25,10,38,10.00
2014,04,25,10,39,10.00
2014,04,25,10,40,10.00
2014,04,25,10,41,10.10
2014,04,25,10,42,10.20
2014,04,25,10,43,10.20
2014,04,25,10,44,10.20
2014,04,25,10,45,10.20
2014,04,25,10,46,10.30
2014,04,25,10,47,10.30
2014,04,25,10,48,10.30
2014,04,25,10,49,10.40
2014,04,25,10,50,10.50
2014,04,25,10,51,10.60
2014,04,25,10,52,10.60
2014,04,25,10,53,10.70
2014,04,25,10,54,10.80
2014,04,25,10,55,11.00
2014,04,25,10,56,11.00
2014,04,25,10,57,11.00
2014,04,25,10,58,11.00
2014,04,25,10,59,11.10
2014,04,25,11,00,11.10
2014,04,25,11,01,11.10
2014,04,25,11,02,11.20
2014,04,25,11,03,11.20
2014,04,25,11,04,11.20
2014,04,25,11,05,11.20
2014,04,25,11,06,11.20
2014,04,25,11,07,11.20
2014,04,25,11,08,11.20
2014,04,25,11,09,11.20
2014,04,25,11,10,11.20
2014,04,25,11,11,11.30
2014,04,25,11,12,11.30
2014,04,25,11,13,11.30
2014,04,25,11,14,11.40
2014,04,25,11,15,11.40
2014,04,25,11,16,11.30
2014,04,25,11,17,11.20
2014,04,25,11,18,11.20
2014,04,25,11,19,11.20
2014,04,25,11,20,11.30
2014,04,25,11,21,11.30
2014,04,25,11,22,11.30
2014,04,25,11,23,11.40
2014,04,25,11,24,11.30
2014,04,25,11,25,11.30
2014,04,25,11,26,11.30
2014,04,25,11,27,11.40
2014,04,25,11,28,11.50
2014,04,25,11,29,11.60
2014,04,25,11,30,11.70
2014,04,25,11,31,11.80
2014,04,25,11,32,11.70
2014,04,25,11,33,11.70
2014,04,25,11,34,11.60
2014,04,25,11,35,11.60
2014,04,25,11,36,11.60
2014,04,25,11,37,11.60
2014,04,25,11,38,11.60
2014,04,25,11,39,11.60
2014,04,25,11,40,11.60
2014,04,25,11,41,11.70
2014,04,25,11,42,11.80
2014,04,25,11,43,11.90
2014,04,25,11,44,12.10
2014,04,25,11,45,12.20
2014,04,25,11,46,12.30
2014,04,25,11,47,12.40
2014,04,25,11,48,12.50
2014,04,25,11,49,12.60
2014,04,25,11,50,12.70
2014,04,25,11,51,12.70
2014,04,25,11,52,12.70
2014,04,25,11,53,12.70
2014,04,25,11,54,12.60
2014,04,25,11,55,12.50
2014,04,25,11,56,12.50
2014,04,25,11,57,12.50
2014,04,25,11,58,12.60
2014,04,25,11,59,12.60
2014,04,25,12,00,12.70
2014,04,25,12,01,12.80
2014,04,25,12,02,12.80
2014,04,25,12,03,12.80
2014,04,25,12,04,12.80
2014,04,25,12,05,12.70
2014,04,25,12,06,12.50
2014,04,25,12,07,12.40
2014,04,25,12,08,12.40
2014,04,25,12,09,12.40
2014,04,25,12,10,12.40
2014,04,25,12,11,12.40
2014,04,25,12,12,12.40
2014,04,25,12,13,12.40
2014,04,25,12,14,12.30
2014,04,25,12,15,12.30
2014,04,25,12,16,12.30
2014,04,25,12,17,12.20
2014,04,25,12,18,12.20
2014,04,25,12,19,12.10
2014,04,25,12,20,12.00
2014,04,25,12,21,12.00
2014,04,25,12,22,11.90
2014,04,25,12,23,11.90
2014,04,25,12,24,11.80
2014,04,25,12,25,11.80
2014,04,25,12,26,11.80
2014,04,25,12,27,11.70
2014,04,25,12,28,11.70
2014,04,25,12,29,11.70
2014,04,25,12,30,11.60
2014,04,25,12,31,11.60
2014,04,25,12,32,11.50
2014,04,25,12,33,11.50
2014,04,25,12,34,11.40
2014,04,25,12,35,11.40
2014,04,25,12,36,11.40
2014,04,25,12,37,11.40
2014,04,25,12,38,11.40
2014,04,25,12,39,11.50
2014,04,25,12,40,11.60
2014,04,25,12,41,11.60
2014,04,25,12,42,11.60
2014,04,25,12,43,11.60
2014,04,25,12,44,11.60
2014,04,25,12,45,11.60
2014,04,25,12,46,11.60
2014,04,25,12,47,11.60
2014,04,25,12,48,11.60
2014,04,25,12,49,11.50
2014,04,25,12,50,11.50
2014,04,25,12,51,11.40
2014,04,25,12,52,11.40
2014,04,25,12,53,11.40
2014,04,25,12,54,11.40
2014,04,25,12,55,11.30
2014,04,25,12,56,11.30
2014,04,25,12,57,11.30
2014,04,25,12,58,11.30
2014,04,25,12,59,11.30
2014,04,25,13,00,11.30
2014,04,25,13,01,11.30
2014,04,25,13,02,11.40
2014,04,25,13,03,11.40
2014,04,25,13,04,11.40
2014,04,25,13,05,11.40
2014,04,25,13,06,11.50
2014,04,25,13,07,11.60
2014,04,25,13,08,11.60
2014,04,25,13,09,11.70
2014,04,25,13,10,11.70
2014,04,25,13,11,11.80
2014,04,25,13,12,11.80
2014,04,25,13,13,11.90
2014,04,25,13,14,11.90
2014,04,25,13,15,11.90
2014,04,25,13,16,12.00
2014,04,25,13,17,12.00
2014,04,25,13,18,12.00
2014,04,25,13,19,12.00
2014,04,25,13,20,12.10
2014,04,25,13,21,12.10
2014,04,25,13,22,12.10
2014,04,25,13,23,12.10
2014,04,25,13,24,12.00
2014,04,25,13,25,11.90
2014,04,25,13,26,11.90
2014,04,25,13,27,11.90
2014,04,25,13,28,11.90
2014,04,25,13,29,11.90
2014,04,25,13,30,11.90
2014,04,25,13,31,11.80
2014,04,25,13,32,11.70
2014,04,25,13,33,11.80
2014,04,25,13,34,11.80
2014,04,25,13,35,11.90
2014,04,25,13,36,11.90
2014,04,25,13,37,11.90
2014,04,25,13,38,11.90
2014,04,25,13,39,11.90
2014,04,25,13,40,11.90
2014,04,25,13,41,11.90
2014,04,25,13,42,11.80
2014,04,25,13,43,11.80
2014,04,25,13,44,11.80
2014,04,25,13,45,11.80
2014,04,25,13,46,11.80
2014,04,25,13,47,11.80
2014,04,25,13,48,11.70
2014,04,25,13,49,11.70
2014,04,25,13,50,11.70
2014,04,25,13,51,11.70
2014,04,25,13,52,11.70
2014,04,25,13,53,11.80
2014,04,25,13,54,11.90
2014,04,25,13,55,12.00
2014,04,25,13,56,12.20
2014,04,25,13,57,12.30
2014,04,25,13,58,12.40
2014,04,25,13,59,12.50
2014,04,25,14,00,12.60
2014,04,25,14,01,12.70
2014,04,25,14,02,12.80
2014,04,25,14,03,12.70
2014,04,25,14,04,12.60
2014,04,25,14,05,12.50
2014,04,25,14,06,12.50
2014,04,25,14,07,12.50
2014,04,25,14,08,12.60
2014,04,25,14,09,12.60
2014,04,25,14,10,12.50
2014,04,25,14,11,12.40
2014,04,25,14,12,12.40
2014,04,25,14,13,12.30
2014,04,25,14,14,12.20
2014,04,25,14,15,12.10
2014,04,25,14,16,12.00
2014,04,25,14,17,11.90
2014,04,25,14,18,11.90
2014,04,25,14,19,11.80
2014,04,25,14,20,11.70
2014,04,25,14,21,11.60
2014,04,25,14,22,11.50
2014,04,25,14,23,11.30
2014,04,25,14,24,11.30
2014,04,25,14,25,11.10
2014,04,25,14,26,11.10
2014,04,25,14,27,11.00
2014,04,25,14,28,10.90
2014,04,25,14,29,10.90
2014,04,25,14,30,10.80
2014,04,25,14,31,10.80
2014,04,25,14,32,10.80
2014,04,25,14,33,10.70
2014,04,25,14,34,10.70
2014,04,25,14,35,10.60
2014,04,25,14,36,10.50
2014,04,25,14,37,10.40
2014,04,25,14,38,10.30
2014,04,25,14,39,10.20
2014,04,25,14,40,10.20
2014,04,25,14,41,10.10
2014,04,25,14,42,10.10
2014,04,25,14,43,10.00
2014,04,25,14,44,10.00
2014,04,25,14,45,9.90
2014,04,25,14,46,9.80
2014,04,25,14,47,9.80
2014,04,25,14,48,9.80
2014,04,25,14,49,9.80
2014,04,25,14,50,9.80
2014,04,25,14,51,9.80
2014,04,25,14,52,9.80
2014,04,25,14,53,9.80
2014,04,25,14,54,9.80
2014,04,25,14,55,9.80
2014,04,25,14,56,9.70
2014,04,25,14,57,9.70
2014,04,25,14,58,9.70
2014,04,25,14,59,9.70
2014,04,25,15,00,9.70
2014,04,25,15,01,9.80
2014,04,25,15,02,9.80
2014,04,25,15,03,9.80
2014,04,25,15,04,9.90
2014,04,25,15,05,9.90
2014,04,25,15,06,9.90
2014,04,25,15,07,10.00
2014,04,25,15,08,10.00
2014,04,25,15,09,10.00
2014,04,25,15,10,10.00
2014,04,25,15,11,10.00
2014,04,25,15,12,10.00
2014,04,25,15,13,10.10
2014,04,25,15,14,10.10
2014,04,25,15,15,10.20
2014,04,25,15,16,10.30
2014,04,25,15,17,10.40
2014,04,25,15,18,10.40
2014,04,25,15,19,10.40
2014,04,25,15,20,10.40
2014,04,25,15,21,10.40
2014,04,25,15,22,10.40
2014,04,25,15,23,10.40
2014,04,25,15,24,10.30
2014,04,25,15,25,10.30
2014,04,25,15,26,10.30
2014,04,25,15,27,10.30
2014,04,25,15,28,10.30
2014,04,25,15,29,10.40
2014,04,25,15,30,10.40
2014,04,25,15,31,10.40
2014,04,25,15,32,10.40
2014,04,25,15,33,10.50
2014,04,25,15,34,10.60
2014,04,25,15,35,10.70
2014,04,25,15,36,10.80
2014,04,25,15,37,10.90
2014,04,25,15,38,11.00
2014,04,25,15,39,11.10
2014,04,25,15,40,11.30
2014,04,25,15,41,11.40
2014,04,25,15,42,11.50
2014,04,25,15,43,11.60
2014,04,25,15,44,11.70
2014,04,25,15,45,11.80
2014,04,25,15,46,11.80
2014,04,25,15,47,11.80
2014,04,25,15,48,11.90
2014,04,25,15,49,11.90
2014,04,25,15,50,11.90
2014,04,25,15,51,11.90
2014,04,25,15,52,12.00
2014,04,25,15,53,12.00
2014,04,25,15,54,12.10
2014,04,25,15,55,12.20
2014,04,25,15,56,12.30
2014,04,25,15,57,12.30
2014,04,25,15,58,12.30
2014,04,25,15,59,12.30
2014,04,25,16,00,12.40
2014,04,25,16,01,12.40
2014,04,25,16,02,12.50
2014,04,25,16,03,12.50
2014,04,25,16,04,12.60
2014,04,25,16,05,12.50
2014,04,25,16,06,12.40
2014,04,25,16,07,12.30
2014,04,25,16,08,12.30
2014,04,25,16,09,12.20
2014,04,25,16,10,12.20
2014,04,25,16,11,12.20
2014,04,25,16,12,12.20
2014,04,25,16,13,12.20
2014,04,25,16,14,12.20
2014,04,25,16,15,12.20
2014,04,25,16,16,12.20
2014,04,25,16,17,12.20
2014,04,25,16,18,12.30
2014,04,25,16,19,12.30
2014,04,25,16,20,12.30
2014,04,25,16,21,12.30
2014,04,25,16,22,12.30
2014,04,25,16,23,12.30
2014,04,25,16,24,12.20
2014,04,25,16,25,12.10
2014,04,25,16,26,11.90
2014,04,25,16,27,11.80
2014,04,25,16,28,11.70
2014,04,25,16,29,11.60
2014,04,25,16,30,11.60
2014,04,25,16,31,11.60
2014,04,25,16,32,11.60
2014,04,25,16,33,11.60
2014,04,25,16,34,11.70
2014,04,25,16,35,11.70
2014,04,25,16,36,11.70
2014,04,25,16,37,11.70
2014,04,25,16,38,11.70
2014,04,25,16,39,11.70
2014,04,25,16,40,11.70
2014,04,25,16,41,11.80
2014,04,25,16,42,11.80
2014,04,25,16,43,11.80
2014,04,25,16,44,11.80
2014,04,25,16,45,11.90
2014,04,25,16,46,11.90
2014,04,25,16,47,11.90
2014,04,25,16,48,11.90
2014,04,25,16,49,11.90
2014,04,25,16,50,11.90
2014,04,25,16,51,12.00
2014,04,25,16,52,12.00
2014,04,25,16,53,11.90
2014,04,25,16,54,11.90
2014,04,25,16,55,11.90
2014,04,25,16,56,11.90
2014,04,25,16,57,11.90
2014,04,25,16,58,12.00
2014,04,25,16,59,12.00
2014,04,25,17,00,12.00
2014,04,25,17,01,12.10
2014,04,25,17,02,12.10
2014,04,25,17,03,12.10
2014,04,25,17,04,12.10
2014,04,25,17,05,12.20
2014,04,25,17,06,12.20
2014,04,25,17,07,12.20
2014,04,25,17,08,12.30
2014,04,25,17,09,12.30
2014,04,25,17,10,12.30
2014,04,25,17,11,12.30
2014,04,25,17,12,12.20
2014,04,25,17,13,12.20
2014,04,25,17,14,12.10
2014,04,25,17,15,12.10
2014,04,25,17,16,12.10
2014,04,25,17,17,12.20
2014,04,25,17,18,12.20
2014,04,25,17,19,12.20
2014,04,25,17,20,12.20
2014,04,25,17,21,12.20
2014,04,25,17,22,12.10
2014,04,25,17,23,12.10
2014,04,25,17,24,12.10
2014,04,25,17,25,12.10
2014,04,25,17,26,12.10
2014,04,25,17,27,12.10
2014,04,25,17,28,12.10
2014,04,25,17,29,12.10
2014,04,25,17,30,12.10
2014,04,25,17,31,12.10
2014,04,25,17,32,12.10
2014,04,25,17,33,12.10
2014,04,25,17,34,12.10
2014,04,25,17,35,12.00
2014,04,25,17,36,12.00
2014,04,25,17,37,12.00
2014,04,25,17,38,12.00
2014,04,25,17,39,12.00
2014,04,25,17,40,12.00
2014,04,25,17,41,11.90
2014,04,25,17,42,11.80
2014,04,25,17,43,11.80
2014,04,25,17,44,11.80
2014,04,25,17,45,11.70
2014,04,25,17,46,11.70
2014,04,25,17,47,11.70
2014,04,25,17,48,11.70
2014,04,25,17,49,11.60
2014,04,25,17,50,11.60